Regional Weather Roundup
Issued by NWS

Home | Current Version | Previous Version | Text Only | Print | Product List | Glossary On
Versions: 1 2 3 4 5 6 7 8 9 10 11 12 13 14 15 16 17 18 19 20 21 22 23 24 25 26 27 28 29 30 31 32 33 34 35 36 37 38 39 40 41 42 43 44 45 46 47 48 49 50
000
ASCA44 KEWX 261220
RWRMX

LATIN AMERICA AND CARIBBEAN REGIONAL WEATHER ROUNDUP
NATIONAL WEATHER SERVICE AUSTIN/SAN ANTONIO TX
700 AM CDT FRI MAY 26 2017

NOTE: "FAIR" INDICATED FEW OR NO CLOUDS BELOW 12,000 FEET WITH NO
SIGNIFICANT WEATHER AND/OR OBSTRUCTIONS TO VISIBILITY.

BAJA CALIFORNIA

CITY           SKY/WX    TMP DP  RH WIND       PRES   REMARKS
LA PAZ         CLEAR     61  57  88 S13       29.90
S.J. DEL CABO  CLEAR     64  61  88 CALM      29.87
TIJUANA        MOCLDY    61  45  55 CALM      29.97

NORTHWESTERN MEXICO

CITY           SKY/WX    TMP DP  RH WIND       PRES   REMARKS
CULIACAN       CLEAR     73  70  88 CALM      29.89
HERMOSILLO     PTCLDY    75  59  57 E6        29.89
CD. JUAREZ     MOCLDY    73  34  23 W12       29.90

NORTHEASTERN MEXICO

CITY           SKY/WX    TMP DP  RH WIND       PRES   REMARKS
CHIHUAHUA      MOCLDY    64  36  34 S6        30.06
MATAMOROS      CLOUDY    81  77  89 S12       29.80
MONCLOVA       PTCLDY    77  59  53 CALM      29.80
MONTERREY      MOCLDY    75  72  88 E5        29.77S
NUEVO LAREDO   CLOUDY    79  73  83 SE16      29.75
REYNOSA        CLOUDY    79  72  78 S9G21     29.77
SALTILLO       CLEAR     79  57  47 SW7       30.06R
TORREON        CLEAR     79  45  29 CALM      29.97
CD. VICTORIA   CLEAR     79  77  94 S13G24    29.80

WESTERN MEXICO

CITY           SKY/WX    TMP DP  RH WIND       PRES   REMARKS
AGUASCALIENTES CLEAR     63  48  59 SE3       30.25
COLIMA         PTCLDY    73  54  49 NE8       30.00
DEL BAJIO      PTCLDY    63  48  59 CALM      30.27R
GUADALAJARA    CLEAR     61  52  72 CALM      30.17
MANZANILLO     CLEAR     72  68  88 N7        29.82
MAZATLAN       CLEAR     66  64  94 CALM      29.91R
P. VALLARTA    CLEAR     70  70 100 NE2       29.88R
URUAPAN        MOCLDY    63  55  77 CALM      30.16
ZACATECAS      CLEAR     61  37  41 S7        30.28

CENTRAL MEXICO

CITY           SKY/WX    TMP DP  RH WIND       PRES   REMARKS
CUERNAVACA     PTCLDY    68  61  77 CALM      30.10
MEXICO CITY    MOCLDY    59  52  77 CALM      30.33R
MORELIA        MOCLDY    61  55  82 CALM      30.23R
POZA RICA      FOG       81  81 100 CALM      29.88  VSB 1   HX  91
QUERETARO      MOCLDY    61  55  82 NE5       30.27
S. LUIS POTOSI CLEAR     66  48  52 SW5       30.19
TAMPICO        CLOUDY    81  79  94 SE9       29.84R
TOLUCA         PTCLDY    48  46  93 CALM      30.39

SOUTHERN MEXICO

CITY           SKY/WX    TMP DP  RH WIND       PRES   REMARKS
ACAPULCO       MOCLDY    77  73  88 NW5       29.86R
B. DE HUATULCO CLOUDY   N/A N/A N/A MISG      29.94
OAXACA         MOCLDY    63  57  82 N5        30.21R HAZE
P. ESCONDIDO   CLOUDY    79  73  83 NE9       29.96R
VERACRUZ       MOCLDY    79  75  89 S5        29.86R
ZIHUATANEJO    MOCLDY    77  70  78 CALM      29.86

YUCATAN PENINSULA

CITY           SKY/WX    TMP DP  RH WIND       PRES   REMARKS
CAMPECHE       CLOUDY    81  79  94 CALM      29.86S
CANCUN         PTSUNNY   82  81  94 E7        29.96R HX  95
CHETUMAL       MOCLDY    84  79  84 SE10      29.91  HX  96
CD. DEL CARMEN CLOUDY    82  75  78 SE14      29.86
COZUMEL        PTSUNNY   79  77  94 CALM      29.94R
MERIDA         CLOUDY    79  77  94 E7        29.92R
MINATITLAN       N/A    N/A N/A N/A MISG        N/A
TAPACHULA      MOCLDY    73  72  94 CALM      29.86R
TUX. GUTIERREZ CLOUDY    70  68  94 CALM      29.98R
VILLAHERMOSA   MOCLDY    79  73  83 CALM      29.86S FOG

CENTRAL AMERICA

CITY           SKY/WX    TMP DP  RH WIND       PRES   REMARKS
BELIZE CITY    TSTM      81  79  94 CALM      29.90R
MANAGUA        MOSUNNY   77  75  94 CALM      29.86R

CARIBBEAN

CITY           SKY/WX    TMP DP  RH WIND       PRES   REMARKS
ARUBA          MOSUNNY   84  75  74 E23       29.92S HX  92
CURACAO        MOSUNNY   84  73  70 E14       29.94S HX  91
KINGSTON       MOSUNNY   81  72  74 NW7       29.97R
SAN JUAN       PTSUNNY   79  73  83 CALM      30.09R
SANTO DOMINGO  LGT RAIN  73  72  94 E7        30.06R
ST. CROIX      MOSUNNY   82  73  74 E9        30.07R
ST. KITTS      MOSUNNY   81  72  74 E10       30.06R
ST. MAARTEN    LGT RAIN  77  77 100 SE13      30.06R
ST. THOMAS     SUNNY     86  73  66 NE7       30.06  HX  93

$$





USA.gov is the U.S. government's official web portal to all federal, state and local government web resources and services.